{"data":{"norad_id":39727,"intl_designator":"2014-023A","name":"LUCH 5V (SDCM/PRN 141)","alt_names":[],"object_type":"PAYLOAD","status":"ACTIVE","operator":null,"country":"CIS","launch_date":"2014-04-28","launch_site_code":"TYMSC","launch_vehicle":null,"mission":null,"orbit_class":"UNKNOWN","rcs_meters":22.5893,"size_class":null,"mass_kg":null,"dimensions":null,"purposes":["comms","earth_obs","nav"],"wikipedia_slug":null,"has_3d_model":false,"image_url":null,"decayed_at":null,"tle_current":{"epoch":"2026-05-24T21:27:21.877344Z","epoch_age_seconds":98400,"freshness":"FRESH","line1":"1 39727U 14023A   26144.89400321 -.00000271  00000+0  00000+0 0  9991","line2":"2 39727   5.0782  69.9818 0002131  13.4782 215.6344  1.00272142 44120","mean_motion":1.00272142,"eccentricity":0.0002131,"inclination_deg":5.0782,"raan_deg":69.9818,"arg_perigee_deg":13.4782,"mean_anomaly_deg":215.6344,"bstar":0,"rev_number":4412,"period_min":1436.0917910779,"perigee_km":35777.509598374,"apogee_km":35795.480164482,"semimajor_km":42164.631881428,"source":"CELESTRAK","updated_at":"2026-05-25T13:38:24.340659Z"}}}